STARLINK-11287 [DTC] (60998 NORAD) Tracking and Keplerian Element Data

This shows tracking and keplerian element data for the satellite.

Feedback or suggestion? Click here.




ElementValue
Catalog60998
NameSTARLINK-11287 [DTC]
Epoch Orbit609
Epoch Day286.91668981
Epoch Year2024
RAAN289.1802
Inclination53.1581
Eccentricity0.0001264
Argument of Perigee96.3338
Mean Anonmoly348.3146
Mean Motion15.69702607
Decay Rate0.00018588
L11 60998U 24158J 24286.91668981 .00018588 00000+0 15799-3 0 9995
L22 60998 53.1581 289.1802 0001264 96.3338 348.3146 15.69702607 6099



Live tracking and technical data element details for STARLINK-11287 [DTC] (NORAD 60998). STARLINK-11287 [DTC] can be tracked NOW for your location showing map with azimuth and elevation plus other details from your city location.







IsCatalogInMostPopularTable: catalog: 60998, numindb: 8
Update: records affected: 1



GetName: 60998 STARLINK-11287 [DTC]

Hit Count: updated at: Wed, 04 Dec 2024 17:48:33 GMT